This is the latest recevied weather packets stored in our database for station/object KQ4KX. If no packets are shown the sender has not sent any weather packets the latest 10 day(s).
| Time | Temp. | Humidity | Pressure | Rain* | Wind** | Luminosity | Snow |
|---|---|---|---|---|---|---|---|
| 1777855528 | 22.22° C | 79% | 1016.3 hPa | 0 mm | - | - | - |
| 1777854898 | 22.22° C | 78% | 1016.1 hPa | 0 mm | - | - | - |
| 1777854298 | 22.22° C | 78% | 1016.1 hPa | 0 mm | - | - | - |
| 1777853969 | 22.78° C | 77% | 1016.1 hPa | 0 mm | - | - | - |
| 1777853669 | 22.78° C | 77% | 1016.1 hPa | 0 mm | - | - | - |
| 1777853369 | 22.78° C | 77% | 1016.2 hPa | 0 mm | - | - | - |
| 1777853038 | 22.78° C | 77% | 1016 hPa | 0 mm | - | - | - |
| 1777852738 | 22.78° C | 77% | 1015.9 hPa | 0 mm | - | - | - |
| 1777851208 | 23.33° C | 75% | 1015.9 hPa | 0 mm | - | - | - |
| 1777850909 | 23.33° C | 75% | 1015.9 hPa | 0 mm | - | - | - |
| 1777850308 | 23.33° C | 76% | 1015.8 hPa | 0 mm | - | - | - |
| 1777849708 | 23.33° C | 76% | 1015.7 hPa | 0 mm | - | - | - |
| 1777849408 | 23.33° C | 75% | 1015.8 hPa | 0 mm | - | - | - |
| 1777849078 | 23.33° C | 77% | 1015.7 hPa | 0 mm | - | - | - |
| 1777848119 | 23.89° C | 74% | 1015.8 hPa | 0 mm | - | - | - |
| 1777847789 | 23.89° C | 74% | 1015.7 hPa | 0 mm | - | - | - |
| 1777847488 | 23.89° C | 75% | 1015.8 hPa | 0 mm | - | - | - |
| 1777847158 | 23.89° C | 74% | 1015.7 hPa | 0 mm | - | - | - |
| 1777846859 | 23.89° C | 74% | 1015.6 hPa | 0 mm | - | - | - |
| 1777846559 | 24.44° C | 73% | 1015.6 hPa | 0 mm | - | - | - |
| 1777846228 | 24.44° C | 73% | 1015.7 hPa | 0 mm | - | - | - |
| 1777845928 | 24.44° C | 73% | 1015.6 hPa | 0 mm | - | - | - |
| 1777845629 | 24.44° C | 74% | 1015.6 hPa | 0 mm | - | - | - |
| 1777845298 | 24.44° C | 74% | 1015.6 hPa | 0 mm | - | - | - |
| 1777844668 | 24.44° C | 73% | 1015.5 hPa | 0 mm | - | - | - |
* Rain latest hour (hover to see other rain measurements)
** Current wind speed in m/s (hover to see current wind gust speed)